    Observer details:
    104 San Marcello Pistoiese.  Observers P. Bacci, M. Maestripieri.  Measurer P.
        Bacci.  0.60-m f/4.0 reflector + CCD.
    203 GiaGa Observatory.  Observers S. Foglia, G. Galli.  Measurer G. Galli.
        0.36-m f/5.76 Schmidt-Cassegrain + CCD.
    703 Catalina Sky Survey.  Observer R. A. Kowalski.  Measurers B. Gray, D.
        Rankin, F. C. Shelly, E. J. Christensen, D. Fay, J. B. Fazekas, D. C.
        Fuls, A. R. Gibbs, A. D. Grauer, H. Groeller, J. K. Hogan, R. A. Kowalski,
        S. M. Larson, G. J. Leonard, R. L. Seaman, A. Serrano, K. W. Wierzchos.
        0.68-m Schmidt + 10K CCD.
    C95 SATINO Remote Observatory, Haute Provence.  Observer J. Jahn.  0.60-m
        f/3.2 Newtonian reflector + CCD.
    G96 Mt. Lemmon Survey.  Observers D. Rankin, R. A. Kowalski.  Measurers E. J.
        Christensen, D. Fay, J. B. Fazekas, D. C. Fuls, A. R. Gibbs, A. D. Grauer,
        H. Groeller, J. K. Hogan, R. A. Kowalski, S. M. Larson, G. J. Leonard, D.
        Rankin, R. L. Seaman, A. Serrano, F. C. Shelly, K. W. Wierzchos, B. Gray.
        1.5-m reflector + 10K CCD.
    H21 Astronomical Research Observatory, Westfield.  Observer R. Holmes.
        Measurers T. Linder, R. Holmes, L. Horn.  0.76-m f/3.0 astrograph + CCD.
    H36 Sandlot Observatory, Scranton.  Observer G. Hug.  0.56-m f/4.8 .56 meter
        reflector + CCD.
    I52 Steward Observatory, Mt. Lemmon Station.  Observer A. Serrano.  Measurers
        E. J. Christensen, D. Fay, J. B. Fazekas, D. C. Fuls, A. R. Gibbs, A. D.
        Grauer, H. Groeller, J. K. Hogan, R. A. Kowalski, S. M. Larson, G. J.
        Leonard, D. Rankin, R. L. Seaman, A. Serrano, F. C. Shelly, K. W.
        Wierzchos.  1.0-m prime focus + CCD.
    I93 St Pardon de Conques.  Observer F. Losse.  0.40-m f/3.7 reflector + CCD.
    J69 North Observatory, Clanfield.  Observer D. Briggs.  0.3-m f/5.4 Newtonian
        reflector + CCD.
    J95 Great Shefford.  Observer P. Birtwhistle.  0.41-m f/6.3 Schmidt-Cassegrain
        + CCD.
    K83 Beppe Forti Astronomical Observatory, Montelupo.  Observers M. Tombelli,
        A. Boattini, A. Squilloni, M. Iozzi, L. Grazzini, A. Mazzanti.  Measurers
        M. Tombelli, F. Bernardi.  0.40-m f/8 Ritchey-Chretien + CCD.
    K87 Dettelbach Vineyard Observatory.  Observer B. Haeusler.  0.30-m f/8.0
        0.30-m Schmidt-Cassegrain + CCD + CCD.
    L01 Visnjan Observatory, Tican.  Observer K. Korlevic.  1.0-m f/2.9 reflector
        + CCD.
    L65 Bredenkamp Observatory, Bremen.  Observer H. Duin.  0.23-m f/6.3 reflector
        + CMO.
    T05 ATLAS-HKO, Haleakala.  Observers L. Denneau, R. Siverd, J. Tonry, H.
        Weiland.  Measurers L. Denneau, N. Erasmus, A. Fitzsimmons, A. Lawrence,
        J. Robinson, R. Siverd, J. Tonry, H. Weiland.  0.5-m Reflector + CCD.
    Z80 Northolt Branch Observatory.  Observer G. Wells.  Measurers G. Wells, D.
        Bamberger.  0.25-m f/8.0 Ritchey-Chretien + CCD.
    Z99 Clixby Observatory, Cleethorpes.  Observer A. Mickleburgh.  0.356-m f/8
        Schmidt-Cassegrain + CCD.
    
    Orbital elements:
    2023 HO18                                                Earth MOID = 0.0031 AU
    Epoch 2023 Feb. 25.0 TT = JDT 2460000.5                 Bell                    
    M 268.07206              (2000.0)            P               Q                  
    n   0.80593020     Peri.  194.75717     -0.03585677     +0.99143924             
    a   1.1435920      Node    73.30862     -0.90309968     +0.02164913             
    e   0.1130068      Incl.    7.53152     -0.42793136     -0.12876162             
    P   1.22           H   25.15          G   0.15           U   7                  
    Residuals in seconds of arc
    230422 G96  0.5-  0.2-    230526 K83  0.6-  0.2-    230526 J95  0.3-  0.2-
    230422 G96  0.4+  0.3-    230526 L01  0.4-  0.3+    230526 J95  0.1-  0.1-
    230422 G96  0.5+  0.3-    230526 L01  0.5-  0.3+    230526 K87  0.1+  0.3-
    230422 G96  0.5-  0.4+    230526 L01  0.5-  0.1+    230526 L65  0.1-  0.1+
    230508 G96  0.5+  0.8-    230526 L01  0.2-  0.1-    230526 K87  0.4+  0.2-
    230508 G96  1.2+  0.6-    230526 L01  0.2-  0.1+    230526 L65  0.2-  0.2+
    230508 G96  0.6+  0.1+    230526 104  0.2-  0.1-    230526 Z99  0.1-  0.0
    230523 703  0.1-  0.2+    230526 203  0.2+  0.1-    230526 Z99  0.0   0.2-
    230523 703  0.0   0.7+    230526 104  0.4-  0.0     230526 L65  0.0   0.4+
    230523 703  0.0   0.1+    230526 I93  0.2+  0.6-    230526 J69  0.7-  0.1+
    230526 703  0.1-  0.3+    230526 C95  0.4+  0.3-    230526 Z80  0.7-  0.1-
    230526 703  0.8+  0.4-    230526 I93  0.3-  0.2-    230526 Z99  0.0   0.1+
    230526 703  1.3+  0.4+    230526 203  0.3-  0.4+    230526 Z99  0.2-  0.1-
    230526 703  0.2+  0.5-    230526 104  0.2-  0.1+    230526 J69  0.5-  0.1-
    230526 I52  0.3+  0.4+    230526 I93  0.3-  0.1-    230526 Z80  0.6+  0.1-
    230526 I52  0.2+  0.2+    230526 203  0.2-  0.2-    230527 H21  0.0   0.2-
    230526 I52  0.2+  0.0     230526 C95  0.2+  0.3-    230527 H21  0.1+  0.2-
    230526 T05  0.1-  0.2-    230526 J69  0.1+  0.0     230527 H21  0.1+  0.2-
    230526 I52  0.4+  0.1-    230526 J95  0.1-  0.0     230527 H21  0.0   0.2-
    230526 T05  0.4-  0.3+    230526 J69  0.3-  0.3-    230527 H36  0.2-  0.1-
    230526 T05  0.0   0.1-    230526 K87  0.2+  0.5+    230527 H36  0.2-  0.3-
    230526 T05  0.1+  0.1+    230526 J95  0.1-  0.1-    230527 H36  0.0   0.2-
    230526 K83  0.4-  0.6+    230526 C95  0.0   0.1-
    230526 K83  0.1-  0.6+    230526 J69  1.2-  0.0
    
    Ephemeris:
    2023 HO18                a,e,i = 1.14, 0.11, 8                   q = 1.0144
    Date    TT    R. A. (2000) Decl.     Delta      r    Elong.  Phase     V
    2023 04 27    15 28 01.9 +45 27 13   0.09697 1.0563   118.7    56.7    22.3
    ...
    2023 05 12    15 30 43.8 +47 14 19   0.06065 1.0368   114.7    62.2    21.4
    ...
    2023 05 20    15 31 23.5 +46 44 42   0.04066 1.0286   113.4    64.5    20.5
    ...
    2023 05 26    15 32 44.7 +44 28 53   0.02545 1.0235   114.0    64.7    19.5
    2023 05 27    15 33 14.4 +43 43 21   0.02290 1.0228   114.5    64.3    19.3
    2023 05 28    15 33 53.0 +42 45 10   0.02036 1.0220   115.2    63.8    19.0
    ...
    2023 06 03    15 48 02.6 +16 44 26   0.0055261.0183   138.9    40.9    15.5
    ...
    2023 06 11    03 17 06.6 -58 06 37   0.01658 1.0139    84.7    94.3    19.6
    ...
    2023 06 26    03 28 20.4 -50 05 08   0.05397 1.0107    82.4    94.6    22.2
    
    M. P. C. Staff               (C) Copyright 2023 MPC           M.P.E.C. 2023-K157
    


    Read MPEC 2023-K156 Read MPEC 2023-K158


    MPEC number:

    Enter an MPEC number in one of the following forms:

    • 1997-B01 (the full form)
    • J97B01 (the packed version of the full form)
    • B01 (the abbreviated form)